Nenana, AK

5:24 AM AKDT en Julio 21, 2018 (GMT -0800)
Nenana Municipal

Tiempo Historia de PANN - Abril, 2018

Change the Weather History Date:

Lunes, Abril 16, 2018

  Actual Average Record
Temperature  
Temperatura media 42 ° F -  
Temperatura máxima 55 ° F 43 ° F 69 ° F (1990)
Temperatura mínima 28 ° F 22 ° F 0 ° F (2006)
Degree Days  
Grados día de calefacción 22    
Moisture  
Punto de rocío 12 ° F    
Average Humidity 39    
Maximum Humidity 94    
Minimum Humidity 23    
Precipitación  
Precipitación 0.00 pul - - ()
Presión al nivel del mar  
Presión al nivel del mar 29.88 pul    
Viento  
Velocidad del viento 13 mph (ENE)    
Velocidad máxima del viento 24 mph    
Max Gust Speed 32 mph    
Visibilidad 10 Millas    
Eventos      
Averages and records for this station are not official NWS values.
T = Trace of Precipitation, MM = Missing Value Source: NWS Daily Summary

Daily Weather History Graph

Daily Weather History Graph

Search for Another Location

Airport or City:

Astronomía

Apr. 16, 2018 Salida Puesta
Hora real 6:18 AM AKDT 9:35 PM AKDT
Crepúsculo civil 5:21 AM AKDT 10:33 PM AKDT
Crepúsculo náutico 3:54 AM AKDT 12:03 AM AKDT
Crepúsculo astronómico Sun does not set Sun does not set
Luna 7:21 AM AKDT (4/16) 10:36 PM AKDT (4/16)
Horas de luz 17h 12m
Horas de luz
15h 17m
Luna nueva, 1% of the Moon is Illuminated
Abr 16
Luna nueva
Abr 22
Cuarto creciente
Abr 29
Luna llena
May 7
Cuarto menguante
May 15
Nueva

Hourly Weather History & Observations

Hora (AKDT) Temp. Vientos helados Punto de rocío Humedad Presión Visibilidad Wind Dir Velocidad del viento Velocidad de ráfagas Precip Eventos Condiciones
12:53 AM 32.0 ° F 21.6 ° F 8.1 ° F 37% 30.01 pul 10.0 mi ENE 15.0 mph 24.2 mph N/A   Despejado
1:53 AM 32.0 ° F 20.8 ° F 7.0 ° F 35% 30.03 pul 10.0 mi ENE 17.3 mph 24.2 mph N/A   Despejado
2:53 AM 30.9 ° F 19.8 ° F 6.1 ° F 35% 30.01 pul 10.0 mi ENE 16.1 mph 29.9 mph N/A   Despejado
3:53 AM 30.9 ° F 19.1 ° F 5.0 ° F 33% 29.99 pul 10.0 mi ENE 18.4 mph 26.5 mph N/A   Despejado
4:53 AM 30.0 ° F 20.0 ° F 5.0 ° F 35% 29.98 pul 10.0 mi Este 12.7 mph 20.7 mph N/A   Despejado
5:53 AM 30.0 ° F 18.7 ° F 5.0 ° F 35% 29.96 pul 10.0 mi Este 16.1 mph 23.0 mph N/A   Despejado
6:53 AM 30.0 ° F 19.1 ° F 3.9 ° F 33% 29.91 pul 10.0 mi ENE 15.0 mph - N/A   Despejado
7:53 AM 30.9 ° F 19.8 ° F 5.0 ° F 33% 29.94 pul 10.0 mi ENE 16.1 mph 23.0 mph N/A   Despejado
8:53 AM 32.0 ° F 21.2 ° F 6.1 ° F 34% 29.93 pul 10.0 mi Este 16.1 mph 26.5 mph N/A   Despejado
9:53 AM 34.0 ° F 21.5 ° F 7.0 ° F 32% 29.92 pul 10.0 mi Este 24.2 mph 32.2 mph N/A   Despejado
10:53 AM 34.0 ° F 23.0 ° F 8.1 ° F 34% 29.88 pul 10.0 mi Este 18.4 mph 31.1 mph N/A   Despejado
11:53 AM 36.0 ° F 27.5 ° F 9.0 ° F 33% 29.90 pul 10.0 mi Este 12.7 mph 23.0 mph N/A   Despejado
1:53 PM 41.0 ° F 34.3 ° F 10.9 ° F 29% 29.84 pul 10.0 mi Este 11.5 mph - N/A   Despejado
2:53 PM 43.0 ° F 36.8 ° F 10.0 ° F 26% 29.83 pul 10.0 mi ENE 11.5 mph - N/A   Despejado
3:53 PM 44.1 ° F 39.5 ° F 10.0 ° F 25% 29.85 pul 10.0 mi NE 8.1 mph - N/A   Despejado
4:53 PM 45.0 ° F 40.1 ° F 10.0 ° F 24% 29.81 pul 10.0 mi ENE 9.2 mph - N/A   Despejado
5:53 PM 46.0 ° F 41.9 ° F 10.0 ° F 23% 29.79 pul 10.0 mi NE 8.1 mph - N/A   Despejado
6:53 PM 45.0 ° F 41.8 ° F 10.9 ° F 25% 29.78 pul 10.0 mi Este 5.8 mph - N/A   Despejado
7:53 PM 45.0 ° F 41.8 ° F 10.9 ° F 25% 29.77 pul 10.0 mi ENE 5.8 mph - N/A   Despejado
8:53 PM 41.0 ° F 38.0 ° F 15.1 ° F 35% 29.80 pul 10.0 mi NNO 4.6 mph - N/A   Despejado
9:53 PM 36.0 ° F 33.3 ° F 17.1 ° F 46% 29.80 pul 10.0 mi NNO 3.5 mph - N/A   Despejado
10:53 PM 30.9 ° F - 17.1 ° F 57% 29.77 pul 10.0 mi Sin viento Sin viento - N/A   Despejado
11:53 PM 28.0 ° F - 17.1 ° F 63% 29.80 pul 10.0 mi Sin viento Sin viento - N/A   Despejado